Showing default

PRSS 1, 43530

Orbit data source: Space-Track

PRSS 1, 43530 is a payload satellite owned by SUPARCO (PK) in SSO that was launched on Mon, 09 Jul 2018 UTC via a CHANG ZHENG 2C launch vehicle from the Jiuquan Satellite Launch Center, China (JSC). Payload-class satellites include a variety of spacecraft equipped with specific instruments for various scientific and technological missions. These include communications satellites like Starlink; space stations such as the ISS; scientific satellites like the Hubble; Earth observation satellites from companies like Planet Labs, Umbra, and HawkEye 360; GPS; miniature CubeSats for education and research; and military/defense satellites.

Loading next visibility...
Identifier
43530, 2018-056B
Orbit
SSO
Country
Flag of PKPK / PAKI
Related business
Manufacturer
DFH
Mission
Operational Civil Imaging
Bus & Motor
CAST-2000, Unknown motor
Mass
~800 kg wet, ~800 kg dry
Launch date (UTC)
2018-07-09 (8 years ago)
Launch vehicle
CHANG ZHENG 2C
Launch site
Jiuquan Satellite Launch Center, China (JSC)
Object type
Payload
Rocket body
Debris
Shape & HBR
Box + 2 Pan, 4.3 m
Radar Cross Section
14.475 m², Large (>1 m²)

Expand to show TLE details & history
Last TLE update: 22 hours ago

TLE from 22 hours ago
0 PRSS 1
1 43530U 18056B   26172.51102007  .00000586  00000-0  80299-4 0  9990
2 43530  97.7815 240.2615 0001582  76.7708 283.3682 14.81994645429070
Epoch: 2026-06-21T12:15Z
TLE epoch observation values (Epoch: 2026-06-21T12:15:52.134Z)
Latitude
0.00003°
Longitude
146.58403°
Altitude
625.807 km
Speed
7.546 km/s
True Right ascension
16h 01m 02s
True Declination
0° 00' 00"
Sunlit
Object was in full shadow at epoch
Visualization orbit readout
Latitude
Unknown
Longitude
Unknown
Altitude
Unknown
Speed
Unknown
Apparent Right ascension
Unknown
Apparent Declination
Unknown
Sunlit
N/A
Visualization observer readout
Local Sidereal Time
21:36:46
Azimuth
Unknown
Elevation
Unknown
Doppler factor
Unknown
Orbital elements
Apogee altitude
621.175 km
Perigee altitude
618.961 km
Semi-major axis
6,998.205 km
Eccentricity
0.00016
Inclination
97.7815°
RAAN
240.2615°
Arg. of periapsis
76.7708°
True anomaly
283.35056°
Mean anomaly
283.3682°
Eccentric anomaly
283.35938°
Mean motion
3.70735 °/min
Orbital period
97.1 mins
BSTAR
0.000080299
Loading maneuver chart data...
Computing Atmospheric mass density...
Loading historical data...
Loading historical data...
Loading historical data...
Loading historical data...
Loading historical data...
Loading historical data...
Loading historical data...

Documentation

Showing up to 5 results
|